Location: Zapote
(9.9191°N, 84.0597°W)
Time: 23:17:37
(UTC-06:00)

Envisat - Pass Details

Date: 29 January 2021
Orbit: 764 x 766 km, 98.1° (Epoch: 02 March)

Event Time Altitude Azimuth Distance (km) Brightness Sun altitude
Rises 04:35:54 0° 23° (NNE) 3,218 6.3 -20.4°
Reaches altitude 10° 04:38:19 10° 30° (NNE) 2,292 5.6 -19.8°
Maximum altitude 04:43:05 43° 101° (E) 1,068 4.3 -18.7°
Drops below altitude 10° 04:47:51 10° 172° (S) 2,293 5.8 -17.5°
Sets 04:50:15 0° 178° (S) 3,219 6.5 -17.0°
